COSMOS 1752

Satellite information

Favourite Embed

Satellite Type and Status

PAYLOADIN ORBIT

Key statistics

Satellite COSMOS 1752 at a glance.

Uptime

14274

Days in orbit

Revolutions

≈ 12.5

Per day

Orbit

LEO

Low Earth Orbit

Inclination

74.0

Latest

Satellite identification and parameters

Extended collection of information and parameters for COSMOS 1752.

Object identification

Identified? True

Debris? False

Object name: COSMOS 1752

International designator: 1986-042E

Object number (NORAD): 16762

Object ID (CCSDS): 16762

Country: COMMONWEALTH OF INDEPENDENT STATES (CIS)

Current information (Y/N): Y

RCS size: MEDIUM

Orbital parameters

Period: 115.476 minutes

Inclination: 74.0157 deg

SMA: 7855.159 km

Apoapsis: 1486.189 km

Periapsis: 1467.86 km

RAAN: 169.9367 deg

Eccentricy: 0.0011667

Argument of periapsis: 179.3348 deg

Mean anomaly: 333.8818 deg

Mean motion: 12.47010924 rev/day

Mean motion (dot): 0.00000006 rev/day2

B* drag term: 0.00014594 1/REarth

Two-line elements (TLE)

Creation date: July 4, 2025, 6:39 p.m.

Reference frame: TEME

Reference center: EARTH

Epoch: July 4, 2025, 9:47 a.m. UTC

TLE line 0: 0 COSMOS 1752

TLE line 1: 1 16762U 86042E 25185.40829204 .00000006 00000-0 14594-3 0 9994

TLE line 2: 2 16762 74.0157 169.9367 0011667 179.3348 333.8818 12.47010924778966

Live tracking on map

Real-time ground track for satellite COSMOS 1752.

In-orbit conjunctions

There are no conjunctions computed for COSMOS 1752, at the moment. Check back to stay up to date, as we update our databases every day.

Go to all conjunctions

Associated space launch

Military communications satellites

COSMOS 1752 was lifted into orbit during the mission ‘Kosmos-3M | Strela-1M 305-312’, on board a Kosmos-3M space rocket.

The launch took place on June 6, 1986, 3:57 a.m. from 132/1 (132L).

For more information about the launch, click the button.

Launch to space Kosmos-3M | Strela-1M 305-312
Kosmos-3M | Strela-1M 305-312

Agency: N/A

Status: Launch Successful

Launch date: June 6, 1986, 3:57 a.m. UTC

Rocket: Kosmos-3M

Launch pad: 132/1 (132L)

Location: Plesetsk Cosmodrome, Russian Federation

...

Latest news about this satellite

There are no fresh news available about this satellite. Check back as we update our databases every day.


Newsletter sign-up

Weekly statistics, charts and insights to help you stay on top of the space industry.